Wind_Speed
23 24 25 25 26 26 26 26 27 28 27 27 27 26 25 25 26 26 26 25 24 22 20 20 22 21 16 10 7 7 8 10 12 15 17 19 22 23 25 26 27 28 30 31 32 33 33 33 34 35 37 38 39 39 39 39 39 39 39 40 41 42 43
23 24 25 25 25 25 26 27 28 28 28 27 28 28 27 27 28 28 28 25 22 21 22 24 22 15 10 7 7 8 10 12 14 16 18 20 22 24 25 26 27 28 29 30 31 33 34 35 35 36 36 36 37 37 37 38 38 38 39 40 41 42 43
24 25 24 24 25 26 27 28 29 29 28 28 28 28 27 27 27 26 23 20 19 21 22 22 17 10 7 7 8 10 11 13 15 17 19 21 23 24 25 26 27 28 29 30 31 33 34 35 36 36 36 36 36 37 38 38 39 39 40 41 42 43 44
25 25 24 25 26 27 27 27 28 28 29 29 28 26 25 24 22 19 18 18 20 18 16 14 10 7 7 7 9 11 12 14 16 18 20 22 23 24 25 26 27 28 29 30 32 32 33 33 34 35 36 37 37 37 37 38 38 39 41 42 43 44 46
25 25 25 25 26 27 27 27 27 28 27 26 24 22 21 20 17 17 18 19 17 13 10 8 7 6 7 8 10 11 13 15 17 19 21 22 23 24 25 26 27 29 29 30 30 31 31 32 34 35 36 37 37 37 36 37 38 39 40 42 44 46 49
25 25 25 26 26 26 27 27 27 26 24 22 22 20 19 17 16 18 20 18 14 11 8 6 5 6 7 9 11 13 15 17 18 20 21 22 23 24 25 27 28 28 28 28 29 30 31 33 34 35 36 36 37 36 36 37 38 40 40 42 45 48 51
25 26 26 27 27 25 24 24 24 22 21 22 23 22 19 17 18 20 19 16 12 9 7 6 7 8 9 11 13 14 16 17 19 20 21 22 23 25 26 27 28 27 27 28 30 31 32 34 34 35 35 35 34 35 36 37 39 40 42 44 47 51 53
26 26 26 26 26 25 23 22 20 19 20 22 24 23 20 19 19 18 16 12 9 8 8 8 9 10 11 13 14 15 17 18 19 20 21 23 24 25 27 27 27 27 28 29 31 32 33 34 34 34 33 33 34 35 37 39 39 41 43 46 50 53 55
25 25 25 25 25 23 21 21 19 18 19 22 23 22 21 20 18 14 12 10 9 9 10 10 10 11 12 14 15 16 17 18 20 21 22 23 25 26 27 26 27 28 29 31 32 33 34 34 33 33 32 33 35 36 38 40 41 42 44 47 51 54 55
24 24 24 25 24 22 22 23 21 19 20 22 22 21 19 16 13 11 10 10 10 10 10 10 11 12 13 14 16 17 18 19 21 22 23 24 25 27 27 27 28 29 31 32 32 33 33 32 32 31 32 34 35 37 39 40 42 43 45 48 51 53 55
23 23 23 22 21 21 22 21 20 18 18 19 18 16 14 12 10 9 9 9 10 10 11 11 12 13 14 16 17 18 19 21 22 23 24 25 26 27 27 28 29 30 31 31 32 32 32 31 31 31 32 34 36 38 39 41 42 44 46 49 51 53 54
22 22 21 19 18 18 17 15 14 14 15 14 13 13 12 11 10 9 10 11 11 11 12 13 14 15 16 17 19 20 21 22 23 24 24 25 27 28 28 29 30 30 31 31 31 31 31 31 30 31 33 35 37 38 39 41 42 44 46 49 51 52 52
21 21 20 18 16 15 13 11 12 13 13 13 13 12 11 10 10 11 12 12 12 13 14 15 15 16 17 19 20 21 22 23 24 24 24 26 27 29 29 30 30 30 30 31 31 32 31 31 30 32 33 35 37 39 40 41 43 44 46 49 51 51 50
19 18 17 16 15 14 12 12 13 14 13 13 12 11 10 10 11 12 13 13 14 15 16 16 17 18 19 20 21 22 24 25 25 25 25 26 28 29 30 30 30 30 31 32 32 32 31 31 31 32 34 36 38 39 40 41 42 44 46 48 50 49 48
17 16 16 16 15 15 15 15 15 14 12 12 11 11 11 11 12 13 14 15 16 16 17 18 18 19 20 21 22 24 25 25 26 26 26 27 29 30 31 31 31 31 32 32 32 32 31 31 31 32 34 36 37 39 40 41 42 44 46 47 48 47 45
14 15 16 17 17 16 16 16 15 13 12 12 12 12 12 12 14 15 16 16 17 17 18 19 20 20 21 23 24 25 26 26 27 26 27 28 30 31 31 31 31 32 33 33 33 32 32 31 31 32 34 36 37 39 40 40 41 43 45 46 46 45 43
13 14 15 16 16 16 16 15 13 12 13 13 13 13 13 14 15 16 17 17 17 18 19 20 21 22 23 24 25 26 27 27 27 27 28 29 30 32 32 32 32 33 33 33 33 33 31 30 30 32 34 35 37 38 39 40 41 42 44 45 44 42 40
15 14 15 15 15 15 14 14 13 13 13 14 14 14 15 16 17 17 17 17 17 19 20 21 23 24 25 26 27 27 27 28 28 28 28 30 31 32 32 32 33 33 33 33 33 32 30 30 30 32 33 35 37 38 38 39 40 42 43 43 41 39 38
15 15 14 14 14 13 13 13 13 13 14 14 15 15 16 17 18 18 18 18 19 20 21 23 24 25 26 27 28 28 29 29 29 29 29 30 31 32 32 33 33 33 33 33 32 31 30 29 30 32 33 35 37 38 38 38 40 41 41 41 40 38 36
15 14 13 13 13 12 13 13 13 13 14 15 16 17 18 19 19 19 19 20 20 21 23 24 25 26 27 28 29 29 30 30 30 30 30 31 31 32 32 32 33 33 33 33 32 30 29 29 30 32 33 35 37 37 37 37 38 39 39 39 38 37 35
15 14 14 13 13 12 12 13 13 13 14 15 17 18 19 19 20 20 21 22 22 23 24 25 26 27 28 29 30 30 30 30 31 31 31 31 31 32 32 32 33 33 33 32 32 30 29 29 30 32 33 35 36 36 36 37 37 37 37 37 36 35 35
15 15 14 14 13 13 14 14 14 14 15 16 17 18 19 20 21 22 23 24 24 25 26 27 29 30 30 31 32 32 32 32 32 33 32 31 31 32 32 32 32 33 33 32 31 30 30 30 30 32 33 35 36 36 36 36 36 36 36 35 34 34 34
16 16 15 15 15 15 15 15 15 16 17 17 18 19 20 21 23 24 24 25 26 26 28 29 31 31 32 33 34 34 34 34 34 34 33 32 31 32 32 32 32 33 33 32 32 30 29 30 31 31 32 34 35 35 35 35 35 35 34 33 33 33 34
18 17 16 16 16 16 17 17 17 18 18 19 20 21 22 23 23 24 25 25 26 28 29 31 32 33 34 35 36 36 36 35 34 33 32 32 31 31 31 31 32 32 33 32 31 30 29 30 31 31 32 33 34 35 35 34 34 33 33 33 33 33 34
19 18 17 17 17 17 18 18 19 19 19 20 21 22 23 23 24 24 25 26 27 29 31 32 34 35 36 37 38 39 38 35 33 31 31 31 30 30 30 31 31 32 32 31 30 29 29 30 31 31 31 32 33 34 34 33 33 33 32 33 33 33 34
19 19 19 18 18 18 19 19 20 20 21 21 22 23 23 24 24 25 26 27 29 32 34 35 37 38 38 38 36 34 32 30 29 29 30 29 29 29 30 30 31 31 31 30 29 28 29 30 30 31 31 32 33 33 33 33 33 33 32 33 33 34 34
20 20 20 19 19 19 20 20 21 21 22 22 23 23 24 24 24 25 26 28 30 32 33 33 34 33 32 29 25 22 21 23 25 27 28 28 28 28 29 29 30 30 30 29 28 27 28 29 30 30 31 32 32 32 32 32 32 32 32 32 33 33 34
20 20 20 20 20 20 21 21 22 22 23 23 24 24 25 25 25 25 27 27 28 29 29 29 28 27 24 21 18 18 20 22 24 26 26 26 27 28 28 28 29 29 29 28 27 27 28 29 30 30 31 31 32 32 32 32 33 33 32 31 32 33 34
21 21 21 21 21 22 22 22 23 23 24 24 25 25 25 25 26 26 26 27 27 27 27 27 26 24 22 19 19 19 20 22 24 24 25 26 27 27 27 28 28 29 28 28 27 28 28 29 30 31 31 31 32 32 33 33 34 33 32 31 32 33 34
22 23 23 23 23 23 23 23 24 24 24 25 25 26 26 26 27 27 27 27 28 28 27 26 25 22 20 20 20 21 21 22 23 23 24 26 27 27 27 27 28 28 28 28 28 28 29 30 31 32 32 31 31 32 32 33 33 32 31 31 32 32 34
24 24 24 23 23 23 24 24 24 25 25 26 26 26 27 27 27 27 28 28 28 27 26 25 23 21 21 22 22 22 21 22 23 24 25 26 26 26 27 27 28 28 28 29 29 30 31 31 32 32 32 31 31 32 33 33 33 32 31 31 31 32 33
25 25 24 24 24 24 24 24 25 25 26 26 27 27 27 27 28 28 28 27 27 27 26 23 22 22 23 24 24 23 23 23 24 25 25 26 26 26 27 27 28 28 29 29 30 31 32 32 32 32 32 31 31 31 32 32 32 31 30 30 31 31 32
26 25 25 24 24 24 24 25 25 26 27 27 28 28 28 29 29 29 29 29 28 27 25 23 23 25 26 25 25 24 24 25 25 25 26 26 26 27 27 27 28 29 30 31 31 32 32 33 33 32 32 31 31 31 31 31 30 30 29 29 30 30 31
26 25 25 25 25 25 25 25 26 27 28 29 30 30 31 31 30 30 30 29 29 27 25 25 26 27 27 26 26 26 26 26 26 26 27 27 27 27 27 28 29 30 31 32 32 33 33 33 32 32 32 31 31 31 31 30 30 29 29 29 30 30 31
26 26 26 26 26 26 26 26 27 28 29 30 31 32 33 32 31 31 30 30 29 27 26 26 27 28 27 27 27 27 27 27 27 28 28 28 27 28 28 29 29 30 31 32 33 33 33 33 32 32 32 31 31 31 31 30 29 29 29 29 30 30 31
27 27 28 28 28 28 28 28 28 29 31 32 33 34 33 32 32 31 31 30 28 27 26 27 27 27 27 28 28 28 28 28 29 29 29 29 28 28 29 30 30 31 32 33 34 34 34 33 33 33 32 32 31 31 31 30 29 29 29 29 30 30 30
29 29 30 30 30 31 31 31 31 32 33 35 35 35 34 33 32 32 31 30 29 27 27 27 27 28 28 29 29 29 29 30 30 30 31 30 30 30 30 31 32 32 32 33 34 34 34 33 33 33 33 32 32 31 31 29 28 28 29 29 29 29 30
Wind_Direction
262 265 268 268 267 266 265 265 263 261 263 268 270 270 270 273 272 265 262 268 271 270 271 265 256 252 250 249 256 266 278 287 295 301 306 308 307 308 309 311 313 315 314 313 311 311 312 312 312 311 311 311 311 311 311 312 313 314 314 315 316 316 316
266 267 267 268 267 265 266 266 264 262 264 267 269 270 271 271 270 266 265 267 269 270 267 254 243 239 239 245 260 273 286 293 300 305 307 308 309 310 312 314 314 313 312 311 312 313 313 312 311 310 310 310 310 312 313 314 314 315 316 316 316 316 316
269 270 270 269 267 268 269 268 267 265 265 268 269 268 269 268 267 266 266 266 266 266 261 249 238 231 236 253 271 282 291 298 304 308 309 310 311 312 314 314 313 311 312 313 313 312 311 310 310 310 311 312 313 315 316 317 317 318 318 318 318 319 319
267 268 269 269 270 271 271 270 271 268 266 268 267 264 266 266 265 264 261 258 256 253 249 243 238 240 254 269 280 289 297 304 308 310 310 310 311 312 313 312 311 312 313 312 311 309 308 308 310 312 314 315 317 318 318 319 319 319 320 321 322 322 322
265 267 268 269 272 274 274 275 274 271 268 265 258 258 265 266 262 254 248 247 247 243 240 240 243 254 268 280 289 299 305 308 309 308 308 309 310 311 311 310 311 311 310 309 308 308 309 311 314 316 317 318 319 319 320 320 320 321 322 323 324 324 324
268 269 270 273 274 275 277 278 276 272 267 257 251 259 265 261 254 246 242 243 244 244 245 249 259 269 278 290 298 304 307 307 306 305 306 308 310 310 310 310 310 309 309 309 310 312 314 316 318 319 319 320 320 320 321 322 322 323 324 325 325 326 326
271 270 272 274 274 276 278 278 275 268 261 255 255 261 262 256 249 242 239 242 243 247 255 262 269 276 285 295 300 302 303 302 301 303 306 308 309 309 309 310 310 310 311 313 315 318 319 320 320 320 319 319 320 320 323 324 325 325 326 326 327 327 327
270 271 272 274 276 276 276 278 273 260 258 259 257 257 259 253 244 237 237 240 243 251 259 265 273 280 287 292 296 297 296 297 300 303 306 307 307 308 310 312 313 315 316 318 321 322 322 321 320 319 319 319 321 323 325 326 326 326 327 328 328 328 329
269 270 271 275 278 275 273 275 269 258 259 260 254 251 249 244 238 237 242 246 249 256 261 268 275 279 285 289 291 291 292 296 300 303 304 305 308 312 314 316 317 319 321 323 323 323 321 319 318 319 320 322 324 326 326 326 326 327 327 329 329 330 331
266 269 270 273 275 274 273 267 257 256 259 254 247 243 239 238 243 249 251 251 254 258 264 270 273 278 283 285 286 288 292 297 300 302 303 307 312 316 318 319 321 323 324 324 323 321 319 319 320 322 323 325 327 327 327 327 327 328 329 330 331 332 333
265 267 269 271 270 272 272 258 247 254 256 247 243 243 245 251 255 254 251 251 253 258 264 269 273 278 280 281 284 288 293 297 299 301 305 310 317 320 321 322 323 323 323 322 321 320 320 322 323 324 324 326 327 327 328 328 328 329 330 331 333 335 335
266 266 266 268 268 269 266 255 252 257 252 248 254 259 260 260 253 249 248 249 253 259 265 271 274 276 277 281 285 289 293 297 298 301 306 314 320 322 322 322 322 322 321 321 321 323 324 324 324 324 325 327 327 328 329 328 328 329 331 333 335 336 336
269 267 263 263 262 257 253 252 256 256 253 258 264 262 258 251 245 245 247 251 258 263 268 271 273 275 278 282 286 289 293 296 298 302 308 315 321 323 322 321 320 320 320 322 325 326 326 324 323 323 325 327 328 329 329 328 329 331 332 335 336 337 337
268 265 258 252 248 245 249 257 258 258 260 261 259 253 248 244 244 248 252 258 262 266 270 272 273 275 279 283 287 291 294 297 299 302 309 316 321 322 321 319 319 320 322 325 327 327 325 323 322 323 326 328 329 329 329 329 331 334 336 337 338 338 338
264 259 252 246 247 253 261 265 263 261 260 255 251 249 247 247 251 254 258 262 266 269 272 273 275 278 282 286 289 292 295 297 299 303 310 315 319 320 319 319 320 322 325 326 327 326 324 321 321 323 326 328 329 329 329 330 333 337 339 340 340 340 339
258 255 251 249 255 262 265 265 263 258 255 252 253 253 252 254 256 259 263 266 270 273 276 277 279 281 285 288 291 294 296 298 301 305 310 313 316 318 318 319 321 324 325 325 325 324 321 320 321 324 326 327 328 328 329 332 336 339 341 341 341 341 340
255 253 252 253 258 260 261 261 257 253 252 253 254 255 256 257 259 263 268 272 277 280 281 282 282 284 286 288 291 294 296 299 303 307 310 312 314 316 317 320 322 324 324 323 323 322 320 319 321 324 326 327 328 329 330 333 337 340 342 342 342 342 341
254 252 252 254 255 255 254 253 251 250 252 253 255 256 257 260 263 267 272 278 284 285 284 284 283 284 286 287 290 294 296 300 303 306 308 310 311 314 317 320 322 322 322 322 321 320 318 319 322 324 325 327 328 329 331 335 338 341 343 343 343 342 341
254 252 251 251 251 250 248 249 250 251 253 255 257 259 262 265 268 271 275 281 285 285 284 283 283 283 285 287 290 293 296 299 302 305 307 308 310 314 317 320 320 321 320 320 319 319 319 320 321 323 325 327 329 331 333 336 339 342 344 344 344 343 341
254 251 248 247 246 245 246 249 252 254 257 260 262 265 268 270 271 273 276 280 283 284 284 284 284 285 287 288 291 293 295 298 301 304 305 306 309 313 316 318 319 319 318 318 319 319 319 319 320 322 325 328 330 332 334 337 340 343 345 345 345 342 340
253 250 247 245 244 244 246 249 253 258 261 263 266 269 272 273 274 275 277 280 283 284 285 286 287 288 289 290 292 293 295 298 300 302 304 305 308 312 315 317 318 317 317 318 319 318 318 318 319 322 325 329 331 333 335 338 341 344 345 345 344 342 340
253 252 249 246 245 246 248 251 254 257 260 264 267 270 272 274 275 276 278 281 282 284 285 286 287 288 289 290 292 293 295 296 298 300 302 304 307 311 314 315 316 315 316 318 318 318 317 317 318 321 325 329 332 334 336 338 341 343 345 345 344 341 339
252 252 250 249 248 248 250 251 254 256 258 262 264 267 269 271 273 275 277 279 281 282 283 283 284 286 287 289 290 291 292 294 295 297 300 302 305 309 312 314 315 315 316 317 317 316 316 315 316 320 324 329 333 335 336 337 340 343 344 345 343 341 339
249 250 250 251 250 250 251 252 254 255 257 260 261 264 266 268 271 274 276 279 280 281 281 282 284 286 288 289 290 289 289 290 293 295 297 300 304 308 311 313 314 315 316 316 315 315 315 314 315 319 323 329 333 335 336 337 339 341 343 344 344 342 339
248 249 249 250 250 250 252 253 255 257 258 260 261 263 266 269 272 276 278 281 282 283 285 287 288 289 290 290 292 292 290 289 291 292 294 298 303 308 311 313 314 314 315 314 314 313 312 313 315 318 323 328 332 334 336 336 337 339 342 344 344 343 339
248 248 248 249 249 251 253 255 257 259 261 262 264 267 270 273 277 280 282 285 287 289 290 291 291 291 291 292 294 295 291 287 286 288 292 298 304 308 311 313 313 313 313 312 311 311 311 312 315 318 322 326 330 333 334 335 335 338 341 344 344 343 340
248 249 250 251 252 253 255 257 259 261 263 265 268 271 275 278 281 284 288 291 293 292 292 293 294 294 294 293 292 291 287 283 282 286 292 299 304 307 310 312 313 312 311 310 309 309 310 312 314 317 320 324 328 331 333 333 334 336 340 343 344 342 340
248 250 251 252 254 255 257 259 261 264 266 268 271 275 278 281 284 289 293 295 295 294 293 294 295 297 296 291 286 285 283 281 282 287 294 299 303 307 310 312 312 311 309 308 308 308 310 312 314 316 318 322 325 328 331 331 331 334 338 341 342 342 340
249 250 251 253 255 256 258 261 263 266 269 272 275 278 280 284 287 291 293 293 294 295 294 292 292 293 293 289 287 287 283 281 283 289 295 300 303 307 310 311 311 310 309 308 308 308 310 313 315 316 317 320 323 327 329 330 330 333 337 340 341 341 340
251 252 253 255 257 259 262 264 267 270 273 275 277 280 283 286 288 290 290 291 292 294 293 290 288 286 286 288 290 288 284 283 287 292 296 300 303 307 309 311 312 311 310 309 308 309 311 313 315 316 317 319 322 326 328 328 329 333 337 340 340 340 339
252 254 257 259 261 263 266 268 270 272 275 277 280 282 284 287 289 290 290 290 291 292 291 287 282 281 285 291 292 289 286 287 290 292 295 298 302 306 310 312 313 312 311 310 310 310 312 313 315 315 316 318 322 325 326 327 328 332 336 339 339 339 338
254 257 260 262 264 265 267 269 271 274 276 279 281 284 286 289 290 290 290 290 290 291 288 281 276 279 287 291 291 289 288 288 289 290 293 297 302 306 310 313 313 313 312 311 311 312 313 314 315 314 315 317 321 324 325 326 328 332 336 337 337 336 335
256 259 262 264 264 265 267 269 272 275 278 281 284 287 289 290 290 290 289 289 289 288 283 276 274 281 287 289 288 287 286 287 287 289 292 296 301 306 310 313 314 313 313 312 312 314 315 315 315 314 315 317 320 322 323 325 328 332 334 335 335 335 333
256 258 259 260 261 263 266 270 274 278 282 285 287 288 290 291 290 289 288 287 288 286 280 275 277 283 286 286 284 284 285 286 286 287 291 295 300 304 309 312 314 314 314 314 314 315 315 316 315 314 315 317 319 320 322 324 327 330 332 333 335 335 334
254 255 256 258 260 263 267 272 278 282 286 288 289 288 289 289 289 288 286 286 286 283 279 276 279 283 284 283 282 283 284 285 285 287 290 293 297 302 307 310 312 314 315 315 315 316 316 316 316 315 315 316 317 318 320 323 325 328 330 332 334 334 333
255 256 258 260 263 267 270 274 279 284 289 291 291 289 289 288 287 286 285 284 284 281 278 278 279 281 281 281 281 282 283 284 285 286 288 290 294 300 304 307 309 312 315 316 316 316 316 317 316 315 314 315 315 316 318 321 324 326 327 330 331 332 331
258 258 260 262 266 269 273 276 280 285 290 292 292 290 289 287 285 284 284 284 283 280 278 278 278 279 280 280 280 281 283 284 285 285 286 288 292 296 300 303 306 309 313 315 316 316 316 316 315 314 313 313 313 314 316 318 321 323 325 327 329 329 330
Height
5812 5812 5811 5811 5811 5812 5812 5812 5812 5812 5812 5811 5811 5811 5811 5811 5811 5811 5811 5811 5811 5810 5810 5810 5810 5810 5810 5810 5811 5811 5812 5812 5812 5812 5812 5812 5811 5810 5809 5808 5806 5804 5803 5801 5800 5798 5797 5795 5793 5791 5789 5786 5784 5781 5779 5776 5773 5771 5768 5766 5764 5761 5759
5810 5810 5810 5809 5809 5810 5810 5809 5809 5809 5809 5808 5808 5808 5809 5809 5809 5809 5809 5809 5809 5808 5808 5808 5807 5808 5808 5809 5810 5810 5811 5811 5811 5811 5810 5810 5809 5808 5807 5806 5804 5803 5801 5799 5797 5795 5793 5791 5790 5788 5786 5784 5781 5778 5775 5773 5770 5768 5766 5763 5761 5759 5756
5808 5808 5808 5808 5807 5807 5806 5806 5806 5806 5806 5805 5805 5806 5806 5806 5806 5807 5807 5807 5807 5807 5806 5806 5806 5807 5807 5808 5809 5809 5809 5809 5809 5809 5809 5808 5807 5806 5805 5803 5802 5801 5799 5797 5795 5793 5791 5789 5787 5784 5783 5780 5778 5775 5772 5769 5767 5764 5761 5759 5757 5754 5751
5807 5807 5807 5806 5805 5804 5803 5803 5803 5803 5803 5803 5803 5803 5804 5804 5804 5804 5805 5805 5805 5805 5805 5805 5805 5806 5806 5807 5807 5808 5808 5808 5808 5807 5807 5806 5805 5804 5803 5802 5800 5799 5797 5795 5793 5791 5789 5786 5784 5781 5779 5776 5774 5772 5768 5765 5763 5760 5757 5755 5752 5750 5747
5806 5806 5805 5804 5803 5801 5800 5800 5800 5799 5799 5800 5800 5800 5801 5801 5802 5802 5803 5803 5803 5803 5803 5803 5804 5804 5805 5806 5806 5806 5806 5806 5806 5805 5805 5804 5803 5802 5801 5800 5798 5797 5795 5793 5791 5789 5786 5784 5781 5778 5775 5772 5770 5768 5765 5762 5760 5758 5755 5751 5748 5746 5742
5804 5804 5803 5802 5800 5799 5798 5797 5796 5796 5797 5797 5797 5798 5799 5799 5800 5800 5801 5801 5801 5801 5801 5802 5803 5803 5804 5804 5805 5805 5805 5804 5804 5804 5803 5802 5802 5801 5799 5798 5797 5795 5793 5791 5788 5786 5783 5780 5777 5774 5771 5768 5766 5764 5762 5759 5756 5754 5752 5748 5744 5741 5738
5801 5801 5800 5799 5797 5796 5795 5794 5793 5794 5794 5795 5796 5796 5797 5798 5798 5798 5798 5798 5799 5799 5800 5801 5801 5802 5803 5803 5803 5803 5803 5803 5803 5802 5802 5801 5800 5799 5798 5796 5794 5792 5790 5788 5785 5782 5779 5776 5774 5771 5768 5766 5763 5760 5758 5756 5753 5750 5747 5744 5740 5736 5733
5799 5799 5797 5796 5795 5794 5793 5792 5792 5792 5792 5793 5794 5795 5795 5795 5796 5796 5796 5797 5798 5798 5799 5800 5800 5801 5801 5802 5802 5802 5802 5801 5801 5801 5800 5799 5798 5797 5795 5793 5791 5789 5786 5784 5781 5778 5776 5773 5771 5768 5766 5763 5760 5758 5755 5752 5750 5747 5743 5740 5736 5732 5728
5797 5796 5795 5793 5792 5791 5791 5791 5790 5790 5791 5791 5792 5793 5793 5793 5793 5794 5795 5796 5797 5798 5798 5799 5799 5800 5800 5800 5800 5800 5800 5800 5799 5799 5798 5797 5796 5794 5792 5790 5788 5785 5783 5780 5778 5775 5773 5771 5768 5765 5763 5760 5757 5754 5752 5749 5746 5744 5740 5736 5732 5728 5723
5795 5794 5793 5791 5790 5789 5789 5788 5788 5788 5789 5790 5790 5791 5791 5791 5792 5793 5794 5795 5796 5797 5797 5798 5798 5798 5799 5799 5799 5798 5798 5798 5797 5797 5796 5795 5793 5791 5789 5787 5784 5782 5780 5777 5775 5773 5771 5768 5765 5762 5759 5757 5754 5751 5748 5746 5743 5740 5736 5732 5728 5724 5719
5792 5791 5791 5790 5788 5788 5787 5786 5786 5787 5788 5789 5789 5790 5790 5791 5792 5792 5793 5794 5795 5795 5796 5796 5797 5797 5797 5797 5797 5797 5796 5796 5795 5795 5794 5792 5790 5788 5786 5784 5781 5779 5777 5775 5773 5770 5767 5764 5761 5759 5756 5754 5752 5749 5746 5743 5739 5736 5732 5728 5724 5720 5715
5789 5788 5788 5788 5787 5787 5786 5785 5786 5786 5787 5788 5789 5789 5790 5790 5790 5791 5792 5793 5793 5794 5795 5795 5795 5795 5795 5795 5795 5795 5794 5794 5793 5792 5791 5790 5788 5786 5783 5781 5779 5777 5775 5772 5770 5767 5764 5761 5759 5756 5754 5751 5749 5746 5744 5740 5736 5733 5729 5725 5720 5716 5712
5786 5786 5786 5786 5786 5786 5785 5785 5786 5786 5787 5787 5788 5788 5788 5788 5789 5790 5791 5791 5792 5793 5793 5793 5793 5793 5793 5793 5793 5793 5792 5792 5791 5790 5789 5787 5785 5783 5781 5779 5777 5774 5772 5769 5766 5763 5761 5758 5756 5754 5751 5749 5746 5743 5740 5737 5733 5730 5726 5722 5718 5713 5709
5783 5783 5784 5784 5784 5784 5785 5785 5785 5785 5785 5786 5786 5787 5787 5787 5788 5789 5789 5790 5791 5791 5791 5792 5792 5792 5792 5791 5791 5791 5790 5790 5789 5788 5786 5784 5782 5780 5778 5776 5774 5772 5769 5766 5763 5760 5758 5756 5754 5752 5749 5746 5743 5740 5737 5734 5730 5726 5722 5718 5714 5710 5706
5781 5781 5782 5782 5783 5783 5784 5784 5784 5784 5784 5785 5785 5785 5786 5786 5787 5788 5788 5789 5789 5790 5790 5790 5790 5790 5790 5789 5789 5789 5788 5787 5786 5785 5783 5781 5780 5778 5776 5774 5771 5769 5765 5763 5760 5758 5756 5754 5752 5749 5747 5744 5741 5738 5734 5730 5727 5723 5719 5715 5711 5707 5703
5779 5780 5780 5781 5782 5782 5782 5782 5782 5783 5783 5783 5784 5784 5785 5786 5786 5787 5787 5788 5788 5788 5788 5788 5788 5788 5788 5787 5787 5786 5786 5785 5784 5782 5780 5779 5777 5775 5773 5771 5768 5765 5762 5760 5757 5755 5753 5751 5749 5747 5744 5742 5739 5735 5732 5728 5724 5720 5716 5712 5708 5704 5701
5778 5778 5779 5780 5780 5781 5781 5781 5781 5782 5782 5783 5783 5783 5784 5785 5785 5786 5786 5786 5786 5786 5787 5786 5786 5786 5786 5785 5785 5784 5783 5782 5781 5779 5778 5776 5774 5772 5770 5767 5765 5762 5760 5757 5755 5753 5751 5749 5747 5744 5742 5739 5736 5733 5729 5725 5721 5717 5714 5710 5706 5702 5699
5776 5777 5778 5778 5779 5780 5780 5780 5781 5781 5781 5782 5782 5783 5783 5783 5784 5784 5784 5785 5785 5785 5785 5784 5784 5784 5783 5783 5782 5781 5780 5779 5778 5776 5775 5773 5771 5769 5767 5764 5762 5759 5757 5754 5752 5750 5748 5746 5744 5742 5739 5737 5734 5730 5726 5723 5719 5715 5712 5708 5704 5700 5697
5775 5776 5777 5777 5778 5779 5779 5779 5780 5780 5780 5781 5781 5781 5782 5782 5782 5783 5783 5783 5783 5783 5783 5782 5782 5781 5781 5780 5779 5778 5777 5776 5775 5773 5772 5770 5768 5766 5763 5761 5759 5757 5754 5752 5750 5748 5746 5744 5742 5739 5737 5734 5731 5727 5724 5720 5716 5713 5709 5706 5702 5698 5695
5774 5775 5776 5776 5777 5778 5778 5778 5778 5779 5779 5779 5779 5780 5780 5781 5781 5781 5781 5781 5781 5781 5780 5780 5779 5779 5778 5777 5776 5775 5774 5773 5772 5770 5769 5767 5765 5763 5760 5758 5756 5754 5752 5749 5747 5745 5743 5741 5739 5737 5734 5732 5728 5725 5721 5717 5714 5710 5707 5703 5700 5697 5694
5773 5774 5774 5775 5776 5776 5776 5776 5777 5777 5777 5778 5778 5778 5779 5779 5779 5779 5779 5779 5779 5779 5778 5777 5777 5776 5775 5774 5773 5772 5771 5770 5769 5768 5766 5764 5762 5760 5758 5755 5753 5751 5749 5747 5744 5742 5740 5738 5736 5734 5732 5729 5726 5722 5719 5715 5712 5708 5705 5701 5698 5695 5692
5771 5772 5773 5773 5774 5774 5774 5774 5775 5775 5775 5776 5776 5776 5777 5777 5777 5777 5777 5777 5776 5776 5775 5775 5773 5772 5771 5771 5770 5769 5768 5767 5766 5764 5763 5761 5759 5757 5755 5752 5750 5748 5746 5744 5742 5740 5738 5736 5734 5732 5729 5726 5723 5719 5716 5713 5710 5706 5703 5699 5696 5693 5690
5769 5770 5771 5771 5772 5772 5772 5773 5773 5773 5773 5774 5774 5774 5774 5774 5774 5774 5774 5774 5773 5773 5772 5771 5770 5769 5768 5767 5766 5765 5764 5763 5763 5761 5760 5758 5756 5754 5752 5750 5748 5745 5743 5741 5739 5737 5735 5733 5731 5729 5726 5723 5720 5717 5714 5711 5707 5704 5701 5698 5695 5692 5688
5768 5768 5769 5769 5770 5770 5770 5771 5771 5771 5771 5771 5771 5771 5771 5771 5771 5771 5771 5770 5770 5769 5768 5767 5766 5765 5764 5763 5762 5761 5761 5760 5759 5758 5757 5755 5753 5751 5749 5747 5745 5742 5740 5738 5736 5734 5732 5731 5729 5726 5723 5720 5717 5714 5711 5708 5705 5702 5699 5696 5693 5689 5686
5766 5766 5767 5767 5768 5768 5768 5769 5769 5769 5769 5769 5769 5769 5768 5768 5768 5768 5768 5767 5766 5765 5765 5764 5762 5761 5760 5759 5758 5757 5757 5756 5756 5755 5754 5752 5750 5748 5746 5744 5742 5740 5738 5735 5733 5731 5730 5728 5726 5723 5720 5717 5714 5711 5709 5706 5703 5700 5696 5693 5690 5687 5684
5763 5764 5765 5765 5765 5766 5766 5766 5766 5766 5766 5766 5766 5766 5766 5765 5765 5765 5764 5764 5763 5762 5761 5760 5758 5757 5756 5755 5754 5753 5753 5753 5752 5752 5750 5749 5747 5745 5743 5741 5739 5737 5735 5733 5731 5729 5727 5725 5723 5720 5717 5714 5712 5709 5706 5703 5700 5697 5694 5691 5688 5685 5682
5761 5761 5762 5763 5763 5763 5764 5764 5764 5764 5763 5763 5763 5763 5763 5762 5762 5762 5761 5760 5759 5758 5757 5756 5754 5753 5752 5751 5751 5750 5749 5749 5749 5748 5747 5746 5744 5742 5740 5738 5736 5734 5732 5730 5729 5727 5725 5723 5720 5718 5715 5712 5709 5706 5703 5700 5698 5695 5692 5689 5686 5683 5680
5758 5759 5759 5760 5760 5761 5761 5761 5761 5761 5761 5760 5760 5760 5759 5759 5759 5758 5758 5757 5756 5754 5753 5753 5751 5750 5749 5749 5748 5747 5747 5746 5746 5745 5744 5742 5740 5739 5737 5735 5733 5731 5729 5728 5726 5724 5722 5720 5718 5716 5713 5710 5707 5704 5701 5699 5696 5693 5690 5687 5683 5680 5677
5756 5756 5757 5757 5758 5758 5758 5758 5758 5758 5757 5757 5757 5757 5756 5756 5756 5755 5754 5753 5752 5751 5750 5749 5748 5747 5746 5746 5745 5744 5744 5743 5743 5742 5740 5739 5737 5736 5734 5732 5730 5729 5727 5725 5723 5721 5719 5717 5715 5713 5710 5708 5705 5702 5699 5696 5693 5690 5687 5684 5681 5678 5675
5753 5753 5754 5754 5755 5755 5755 5755 5755 5754 5754 5754 5754 5753 5753 5753 5752 5752 5751 5750 5749 5748 5747 5746 5745 5744 5744 5743 5742 5741 5741 5740 5739 5738 5737 5735 5734 5733 5731 5729 5727 5726 5724 5722 5720 5719 5717 5714 5712 5710 5707 5705 5702 5699 5696 5693 5691 5688 5685 5682 5678 5675 5673
5750 5750 5751 5751 5752 5752 5752 5752 5751 5751 5751 5751 5750 5750 5750 5749 5749 5748 5747 5746 5746 5745 5744 5743 5742 5741 5741 5740 5739 5738 5737 5737 5736 5735 5733 5732 5731 5730 5728 5726 5725 5723 5721 5719 5718 5716 5714 5711 5709 5707 5704 5702 5699 5697 5694 5691 5688 5686 5683 5679 5676 5673 5671
5747 5747 5747 5748 5749 5749 5748 5748 5748 5748 5748 5747 5747 5747 5746 5746 5745 5744 5744 5743 5742 5741 5740 5739 5739 5738 5738 5737 5736 5735 5734 5733 5732 5731 5730 5729 5728 5726 5725 5723 5722 5720 5718 5717 5715 5713 5710 5708 5706 5704 5701 5699 5697 5694 5691 5688 5686 5683 5680 5677 5674 5672 5669
5743 5744 5744 5745 5745 5745 5745 5745 5745 5744 5744 5744 5743 5743 5743 5742 5742 5741 5740 5739 5739 5738 5737 5736 5735 5735 5734 5733 5732 5731 5731 5730 5729 5728 5727 5726 5724 5723 5722 5721 5719 5717 5715 5713 5712 5709 5707 5705 5703 5701 5698 5696 5694 5691 5688 5686 5683 5681 5678 5675 5673 5670 5667
5740 5740 5741 5741 5741 5741 5741 5741 5741 5741 5740 5740 5740 5739 5739 5738 5738 5737 5736 5736 5735 5734 5733 5733 5732 5731 5730 5730 5729 5728 5727 5726 5725 5724 5723 5722 5721 5720 5719 5718 5716 5714 5712 5710 5708 5706 5704 5702 5700 5698 5695 5693 5691 5688 5686 5683 5681 5679 5676 5673 5671 5668 5665
5736 5736 5737 5737 5737 5737 5737 5737 5737 5737 5737 5736 5736 5735 5735 5734 5734 5733 5732 5732 5731 5730 5730 5729 5728 5728 5727 5726 5725 5724 5724 5723 5722 5721 5720 5719 5718 5717 5716 5715 5713 5711 5709 5707 5705 5703 5701 5699 5697 5695 5692 5691 5688 5686 5683 5681 5678 5676 5674 5671 5668 5666 5663
5733 5733 5733 5733 5733 5733 5733 5733 5733 5733 5733 5732 5732 5731 5731 5730 5730 5729 5729 5728 5727 5727 5726 5725 5725 5724 5723 5722 5722 5721 5720 5719 5718 5718 5717 5716 5715 5714 5713 5711 5710 5708 5706 5704 5702 5700 5698 5696 5694 5691 5689 5688 5686 5683 5681 5678 5676 5674 5671 5669 5666 5664 5662
5730 5730 5730 5730 5730 5729 5729 5729 5729 5729 5729 5728 5728 5727 5727 5726 5726 5725 5725 5724 5724 5723 5722 5722 5721 5720 5719 5719 5718 5717 5716 5715 5715 5714 5713 5712 5711 5710 5709 5708 5706 5704 5703 5701 5699 5697 5695 5693 5691 5688 5686 5685 5683 5681 5678 5676 5674 5671 5669 5667 5664 5662 5660